Regional Weather Roundup
Issued by NWS

Home | Current Version | Previous Version | Text Only | Print | Product List | Glossary On
Versions: 1 2 3 4 5 6 7 8 9 10 11 12 13 14 15 16 17 18 19 20 21 22 23 24 25 26 27 28 29 30 31 32 33 34 35 36 37 38 39 40 41 42 43 44 45 46 47 48 49 50
000
ASUS43 KDTX 011110
RWRMI
MICHIGAN HOURLY REGIONAL WEATHER ROUNDUP
NATIONAL WEATHER SERVICE DETROIT/PONTIAC MI
600 AM EST SUN FEB 01 2015

NOTE: "FAIR" INDICATES FEW OR NO CLOUDS BELOW 12,000 FEET WITH NO
SIGNIFICANT WEATHER AND/OR OBSTRUCTION TO VISIBILITY.

MIZ047>049-052>055-059>063-066>070-074>076-081>083-011200-
SOUTHEAST LOWER MICHIGAN

CITY           SKY/WX    TMP DP  RH WIND       PRES   REMARKS
ADRIAN         LGT SNOW  29  27  92 E8        30.13F FOG
ALMA           LGT SNOW  17  15  91 NE14      30.21F
ANN ARBOR      LGT SNOW  26  23  88 NE6       30.14F FOG
BAD AXE        CLOUDY    19  15  84 N12       30.23R
DETROIT CITY   LGT SNOW  27  22  81 NE8       30.18R
DETROIT        LGT SNOW  27  24  89 NE6       30.17S FOG
FLINT          LGT SNOW  21  15  78 NE13      30.20R
GROSSE ILE     LGT SNOW  27  25  93 NE10      30.15S
HILLSDALE      LGT SNOW  29  29  99 E8        30.09F
HOWELL         LGT SNOW  24  22  93 NE7       30.14F

CITY           SKY/WX    TMP DP  RH WIND       PRES   REMARKS
JACKSON        LGT SNOW  25  22  88 NE8       30.12F VSB 1
LAMBERTVILLE   LGT SNOW  32  28  86 E6        30.15S
LANSING        LGT SNOW  20  16  84 NE15G23   30.17S FOG
LAPEER         NOT AVBL
MASON          LGT SNOW  23  20  89 NE9       30.14F
MONROE         LGT SNOW  28  27  93 E8        30.14S
MT. CLEMENS    FLURRIES  23  20  88 N10       30.17S
PONTIAC        LGT SNOW  21  17  84 NE10      30.16R FOG
PORT HOPE        N/A     20  13  74 N21       30.22S
PORT HURON     LGT SNOW  23  21  93 NW3       30.20R
TRI CITIES     LGT SNOW  19  12  74 NE17      30.23S
YPSILANTI      LGT SNOW  29  23  78 NE9       30.16S
$$
MIZ043>046-050>051-056>058-064>065-071>073-077>080-011200-
SOUTHWEST LOWER MICHIGAN

CITY           SKY/WX    TMP DP  RH WIND       PRES   REMARKS
BATTLE CREEK   LGT SNOW  26  22  84 E10       30.11S VSB 1
BENTON HARBOR  LGT SNOW  28  28 100 E10       30.07F FOG
BIG RAPIDS     LGT SNOW  15  11  86 E8        30.18S
COLDWATER      LGT SNOW  29  28  96 E6        30.09F
HOLLAND        LGT SNOW  25  21  85 NE10      30.13S VSB 1
GRAND RAPIDS   LGT SNOW  22  18  85 E16       30.15R FOG
KALAMAZOO      LGT SNOW  27  24  89 E8        30.10F VSB 1
MARSHALL       LGT SNOW  24  22  92 NE7       30.11F
MUSKEGON       LGT SNOW  21  16  81 NE10      30.16S
$$
MIZ016>042-011200-
NORTHERN LOWER MICHIGAN

CITY           SKY/WX    TMP DP  RH WIND       PRES   REMARKS
ALPENA         CLOUDY     7   1  76 NE13      30.34R WCI  -9
BEAVER ISLAND  CLOUDY     2  -4  77 NE8       30.35R
BELLAIRE       CLOUDY    10   2  70 N8        30.30F
CADILLAC       CLOUDY    12   5  74 NE12      30.16F WCI  -2
CHARLEVOIX     CLOUDY     7   1  78 NE13      30.34S WCI -10
FRANKFORT      CLOUDY    15   9  77 NE9       30.24S
GAYLORD        CLOUDY     6   2  83 NE9       30.23S
GRAYLING       CLOUDY    10   5  80 NE10      30.23F WCI  -4
HARBOR SPRINGS CLOUDY     4  -3  72 NE6       30.32S
HOUGHTON LAKE  CLOUDY    11   5  77 NE10      30.21F WCI  -3
MANISTEE       CLOUDY    16   5  62 NE15G21   30.22F
OSCODA         CLOUDY    13   7  76 N15       30.27F WCI  -3
PELLSTON       MOCLDY     4  -3  73 NE8       30.35R
TRAVERSE CITY  CLOUDY    13   4  67 NE13      30.27S WCI  -2
$$
MIZ007>008-015-011200-
EASTERN UPPER MICHIGAN

CITY           SKY/WX    TMP DP  RH WIND       PRES   REMARKS
KINROSS        MOCLDY    -8 -15  71 NE8       30.38S
MACKINAC ISLAN MOCLDY     0  -8  67 NE13      30.36R WCI -18
NEWBERRY       MOCLDY    -6 -11  81 NE7       30.36S
S. S. MARIE    PTCLDY    -9 -19  61 NE6       30.40R
$$
MIZ004>006-011>014-085-011200-
CENTRAL UPPER MICHIGAN

CITY           SKY/WX    TMP DP  RH WIND       PRES   REMARKS
MANISTIQUE     CLOUDY     5  -2  75 NE12      30.34S WCI -11
ESCANABA       CLOUDY    10   1  67 NE12G17   30.33S WCI  -4
MENOMINEE      CLOUDY    12   3  67 NE9       30.28S
SAWYER-GWINN   LGT SNOW   9   4  81 NE8       30.29S
$$
MIZ001>003-009>011-084-011200-
WESTERN UPPER MICHIGAN

CITY           SKY/WX    TMP DP  RH WIND       PRES   REMARKS
IRON MOUNTAIN  CLOUDY     8   2  76 N6        30.27S
HOUGHTON       CLOUDY     2  -3  80 NE8       30.35S
COPPER HARBOR    N/A     10   1  67 E7        30.40S
IRONWOOD       CLOUDY     3   0  85 E3        30.29S
$$

ABBREVIATIONS USED IN REMARKS
   TC - TEMPERATURE IN CELSIUS
  WCI - WIND CHILL INDEX
   HX - HEAT INDEX
  VSB - VISIBILITY




USA.gov is the U.S. government's official web portal to all federal, state and local government web resources and services.